When you browse on this site, cookies collect data to enhance your experience and personalize the content and advertising you see.
Visit our Privacy Policy to learn more. By continuing to use the site, you agree to this use of cookies and data.
  • In Hungary
  • List of Countries
  • For 7 days
  • Water Temperature
  • Satellite Maps
  • Weather Map
  • News
  • Weather Widgets
  • user-avatar
    Login

    Hourly Weather Leominster

    Today, 17 February, Sunday

    Time Temperature Precipitation Wind Pressure Humidity
    00:00 -7°C° 0 mm 3 mps 749 mmHg 74%
    01:00 -8°C° 0 mm 4 mps 749 mmHg 70%
    02:00 -8°C° 0 mm 3 mps 750 mmHg 70%
    03:00 -8°C° 0 mm 3 mps 750 mmHg 70%
    04:00 -8°C° 0 mm 3 mps 750 mmHg 69%
    05:00 -8°C° 0 mm 2 mps 750 mmHg 69%
    06:00 -8°C° 0 mm 2 mps 751 mmHg 69%
    07:00 -8°C° 0 mm 2 mps 751 mmHg 69%
    08:00 -6°C° 0 mm 2 mps 751 mmHg 62%
    09:00 -5°C° 0 mm 2 mps 752 mmHg 55%
    10:00 -3°C° 0 mm 2 mps 752 mmHg 48%
    11:00 0°C° 0 mm 1 mps 752 mmHg 44%
    12:00 +2°C° 0 mm 1 mps 751 mmHg 40%
    13:00 +3°C° 0 mm 1 mps 751 mmHg 36%
    14:00 +3°C° 0 mm 1 mps 751 mmHg 38%
    15:00 +3°C° 0 mm 1 mps 751 mmHg 40%
    16:00 +3°C° 0 mm 1 mps 751 mmHg 41%
    17:00 +1°C° 0 mm 1 mps 751 mmHg 47%
    18:00 0°C° 0 mm 1 mps 751 mmHg 52%
    19:00 -1°C° 0 mm 1 mps 750 mmHg 57%
    20:00 -1°C° 0 mm 1 mps 750 mmHg 61%
    21:00 -2°C° 0 mm 1 mps 750 mmHg 65%
    22:00 -2°C° 0 mm 1 mps 750 mmHg 68%
    23:00 -2°C° 0.1 mm 1 mps 750 mmHg 69%

    Tomorrow, 18 February, Monday

    Time Temperature Precipitation Wind Pressure Humidity
    00:00 -2°C° 0.1 mm 1 mps 750 mmHg 71%
    01:00 -1°C° 0.1 mm 1 mps 750 mmHg 72%
    02:00 -1°C° 0.4 mm 1 mps 749 mmHg 78%
    03:00 -3°C° 0.4 mm 0 mps 748 mmHg 84%
    04:00 -3°C° 0.4 mm 0 mps 747 mmHg 90%
    05:00 -2°C° 0.5 mm 1 mps 747 mmHg 91%
    06:00 -2°C° 0.5 mm 1 mps 746 mmHg 93%
    07:00 -1°C° 0.5 mm 1 mps 746 mmHg 94%
    08:00 -3°C° 0.5 mm 2 mps 745 mmHg 92%
    09:00 -3°C° 0.5 mm 2 mps 745 mmHg 91%
    10:00 -2°C° 0.5 mm 2 mps 744 mmHg 90%
    11:00 -2°C° 0.3 mm 2 mps 744 mmHg 89%
    12:00 -1°C° 0.3 mm 2 mps 744 mmHg 88%
    13:00 -1°C° 0.3 mm 2 mps 743 mmHg 87%
    14:00 -1°C° 0.3 mm 2 mps 744 mmHg 86%
    15:00 -1°C° 0.3 mm 2 mps 744 mmHg 86%
    16:00 -2°C° 0.3 mm 3 mps 744 mmHg 86%
    17:00 -2°C° 0 mm 3 mps 746 mmHg 86%
    18:00 -4°C° 0 mm 3 mps 747 mmHg 86%
    19:00 -5°C° 0 mm 3 mps 749 mmHg 86%
    20:00 -7°C° 0 mm 4 mps 750 mmHg 79%
    21:00 -9°C° 0 mm 4 mps 751 mmHg 71%
    22:00 -11°C° 0 mm 5 mps 752 mmHg 64%
    23:00 -12°C° 0 mm 5 mps 753 mmHg 66%

    Day after tomorrow, 19 February, Tuesday

    Time Temperature Precipitation Wind Pressure Humidity
    00:00 -12°C° 0 mm 5 mps 754 mmHg 67%
    01:00 -13°C° 0 mm 5 mps 754 mmHg 69%
    02:00 -13°C° 0 mm 5 mps 755 mmHg 69%
    03:00 -14°C° 0 mm 4 mps 756 mmHg 70%
    04:00 -14°C° 0 mm 4 mps 756 mmHg 70%
    05:00 -14°C° 0 mm 4 mps 757 mmHg 69%
    06:00 -14°C° 0 mm 4 mps 758 mmHg 68%
    07:00 -15°C° 0 mm 4 mps 759 mmHg 67%
    08:00 -12°C° 0 mm 4 mps 759 mmHg 62%
    09:00 -11°C° 0 mm 4 mps 760 mmHg 57%
    10:00 -9°C° 0 mm 4 mps 760 mmHg 52%
    11:00 -8°C° 0 mm 4 mps 760 mmHg 50%
    12:00 -7°C° 0 mm 4 mps 760 mmHg 48%
    13:00 -5°C° 0 mm 4 mps 760 mmHg 45%
    14:00 -5°C° 0 mm 4 mps 760 mmHg 47%
    15:00 -5°C° 0 mm 4 mps 760 mmHg 48%
    16:00 -5°C° 0 mm 3 mps 760 mmHg 50%
    17:00 -7°C° 0 mm 3 mps 761 mmHg 57%
    18:00 -8°C° 0 mm 3 mps 761 mmHg 63%
    19:00 -8°C° 0 mm 2 mps 762 mmHg 70%
    20:00 -9°C° 0 mm 2 mps 762 mmHg 71%
    21:00 -9°C° 0 mm 2 mps 762 mmHg 72%
    22:00 -10°C° 0 mm 2 mps 762 mmHg 73%
    23:00 -10°C° 0 mm 2 mps 762 mmHg 73%

    20 February, Wednesday

    Time Temperature Precipitation Wind Pressure Humidity
    00:00 -12°C° 0 mm 2 mps 763 mmHg 73%
    01:00 -12°C° 0 mm 2 mps 763 mmHg 74%
    02:00 -10°C° 0 mm 1 mps 763 mmHg 73%
    03:00 -10°C° 0 mm 1 mps 763 mmHg 73%
    04:00 -10°C° 0 mm 1 mps 763 mmHg 72%
    05:00 -10°C° 0 mm 1 mps 763 mmHg 73%
    06:00 -11°C° 0 mm 1 mps 763 mmHg 74%
    07:00 -11°C° 0 mm 1 mps 764 mmHg 75%
    08:00 -9°C° 0 mm 1 mps 764 mmHg 67%
    09:00 -7°C° 0 mm 1 mps 764 mmHg 58%
    10:00 -4°C° 0 mm 1 mps 764 mmHg 50%
    11:00 -3°C° 0 mm 1 mps 763 mmHg 48%
    12:00 -1°C° 0 mm 1 mps 762 mmHg 46%
    13:00 0°C° 0 mm 1 mps 762 mmHg 44%
    14:00 0°C° 0 mm 1 mps 761 mmHg 47%
    15:00 -1°C° 0 mm 1 mps 761 mmHg 50%
    16:00 -3°C° 0 mm 2 mps 761 mmHg 52%
    17:00 -4°C° 0 mm 2 mps 761 mmHg 57%
    18:00 -4°C° 0 mm 2 mps 760 mmHg 61%
    19:00 -5°C° 0 mm 2 mps 760 mmHg 66%
    20:00 -5°C° 0.2 mm 2 mps 759 mmHg 70%
    21:00 -5°C° 0.2 mm 2 mps 758 mmHg 74%
    22:00 -5°C° 0.2 mm 2 mps 758 mmHg 78%
    23:00 -6°C° 0.7 mm 3 mps 756 mmHg 81%

    21 February, Thursday

    Time Temperature Precipitation Wind Pressure Humidity
    00:00 -6°C° 0.7 mm 3 mps 755 mmHg 84%
    01:00 -5°C° 0.7 mm 3 mps 754 mmHg 88%
    02:00 -4°C° 0.8 mm 3 mps 753 mmHg 90%
    03:00 -2°C° 0.8 mm 2 mps 751 mmHg 92%
    04:00 -1°C° 0.8 mm 2 mps 750 mmHg 94%
    05:00 +2°C° 0.5 mm 1 mps 749 mmHg 95%
    06:00 +2°C° 0.5 mm 1 mps 748 mmHg 96%
    07:00 +3°C° 0.5 mm 1 mps 747 mmHg 97%
    08:00 +4°C° 0.1 mm 1 mps 746 mmHg 96%
    09:00 +4°C° 0.1 mm 2 mps 746 mmHg 95%
    10:00 +5°C° 0.1 mm 3 mps 746 mmHg 94%
    11:00 +6°C° 0 mm 4 mps 746 mmHg 87%
    12:00 +6°C° 0 mm 5 mps 746 mmHg 81%
    13:00 +7°C° 0 mm 6 mps 745 mmHg 74%
    14:00 +5°C° 0 mm 6 mps 746 mmHg 75%
    15:00 +5°C° 0 mm 5 mps 746 mmHg 75%
    16:00 +3°C° 0 mm 5 mps 747 mmHg 75%
    17:00 +2°C° 0 mm 5 mps 748 mmHg 77%
    18:00 0°C° 0 mm 5 mps 749 mmHg 79%
    19:00 -1°C° 0 mm 4 mps 750 mmHg 81%
    20:00 -1°C° 0 mm 4 mps 751 mmHg 83%
    21:00 -1°C° 0 mm 3 mps 752 mmHg 85%
    22:00 -1°C° 0 mm 2 mps 752 mmHg 87%
    23:00 -2°C° 0 mm 2 mps 752 mmHg 87%

    22 February, Friday

    Time Temperature Precipitation Wind Pressure Humidity
    00:00 -2°C° 0 mm 2 mps 752 mmHg 86%
    01:00 -2°C° 0 mm 2 mps 753 mmHg 86%
    02:00 -3°C° 0 mm 2 mps 753 mmHg 86%
    03:00 -3°C° 0 mm 2 mps 753 mmHg 86%
    04:00 -2°C° 0 mm 1 mps 754 mmHg 86%
    05:00 -2°C° 0 mm 1 mps 754 mmHg 86%
    06:00 -2°C° 0 mm 1 mps 754 mmHg 86%
    07:00 -2°C° 0 mm 1 mps 755 mmHg 86%
    08:00 -1°C° 0 mm 1 mps 755 mmHg 81%
    09:00 +1°C° 0 mm 1 mps 755 mmHg 76%
    10:00 +1°C° 0 mm 0 mps 755 mmHg 72%
    11:00 +2°C° 0 mm 0 mps 755 mmHg 70%
    12:00 +4°C° 0 mm 1 mps 755 mmHg 69%
    13:00 +5°C° 0 mm 1 mps 755 mmHg 67%
    14:00 +5°C° 0 mm 1 mps 755 mmHg 69%
    15:00 +5°C° 0 mm 1 mps 754 mmHg 70%
    16:00 +5°C° 0 mm 1 mps 754 mmHg 71%
    17:00 +3°C° 0 mm 1 mps 755 mmHg 78%
    18:00 +1°C° 0 mm 1 mps 755 mmHg 84%
    19:00 0°C° 0 mm 1 mps 755 mmHg 90%
    20:00 0°C° 0 mm 1 mps 755 mmHg 91%
    21:00 -1°C° 0 mm 1 mps 755 mmHg 91%
    22:00 -1°C° 0 mm 1 mps 755 mmHg 92%
    23:00 -1°C° 0 mm 1 mps 755 mmHg 93%
    Show more